Погода в Третьяково

Россия / Алтайский край     50°51′58″N   81°53′45″E
темп.,
°C
ветер,
м/с
пор.,
м/с
влажн.,
%
обл.,
%
осадки,
мм/ч
давл.,
гПа
погр.,
м
22 октября, пт
пт2201:00+8ююв354062 0.0 101465
04:00+8ю3441100 0.0 101560
07:00+5зсз4792100 0.8 1019460
10:00+2зсз3497100 4.1 1022292
13:00+2ююз3693100 7.5 1025385
16:00+5ююз4767100 0.1 10261132
19:00+2юв3588100 0.3 1029174
22:00+1ююв239527 0.1 103182
23 октября, сб
сб2301:000ююв349388 0.1 103295
04:000ююв369197 0.0 1033117
07:000ююв413764 0.0 1033372
10:00+2ю614643 0.0 1033769
13:00+5ю9144986 0.0 10311423
16:00+7ю9144575 0.0 10291542
19:00+6ю81451100 0.0 10301245
22:00+3ю71491100 0.8 1032818
24 октября, вс
вс2401:00+3ююв91583100 1.3 1031769
04:00+3ююв91679100 0.0 1031616
07:00+3ююв81574100 0.0 1031571
10:00+4ююв81462100 0.0 1031703
13:00+6ю81254100 0.0 1030857
16:00+7ююв51155100 0.0 1029478
19:00+6юв51062100 0.0 1029286
22:00+6ююв41060100 0.0 1029320
25 октября, пн
пн2501:00+5ююв376420 0.0 1028178
04:00+3ююв33695 0.0 102736
07:00+3ююв33718 0.0 102728
10:00+4ююв34645 0.0 1026141
13:00+9ю45475 0.0 1025461
16:00+10ю34435 0.0 1023534
19:00+7ююв22575 0.0 102311
22:00+6юв116156 0.0 102310
26 октября, вт
вт2601:00+5юв116369 0.0 102210
04:00+4вюв216742 0.0 102110
07:00+4юв227210 0.0 102010
10:00+6юв23688 0.0 101876
13:00+11ююв474968 0.0 1016407
16:00+13ююв5114091 0.0 1014944
19:00+9ююв3450100 0.0 101448
22:00+10ю6164017 0.0 1014501